Flag for Germany Weather past 2 weeks in Aurich, Lower Saxony, Germany

Now
50 °F

Drizzle. Fog.


Feels Like: 44 °F
Forecast: 43 / 52 °F
Wind: 16 mph from Southwest

Location: Wittmundhaven

Current Time: Dec 18, 2014 at 12:34:58 PM

Latest Report: Dec 18, 2014 at 11:20 AM


Visibility: 2 mi

Pressure: 29.68 "Hg

Humidity: 94%

Dew point: 48 °F

Location of AurichLocation

Historic Weather in Aurich — Graph

°F

Aurich temperature yesterday

Maximum temperature yesterday: 46 °F (at 4:20 PM)
Minimum temperature yesterday: 36 °F (at 12:20 AM)
Average temperature yesterday: 41 °F

Past Weeks' High & Low Weather Summary

 TemperatureHumidityPressure
High50 °F (Dec 18, 7:20 AM)100% (Dec 4, 8:20 PM)30.30 "Hg (Dec 4, 8:20 PM)
Low30 °F (Dec 3, 2:20 PM)71% (Dec 10, 2:20 PM)29.15 "Hg (Dec 12, 11:20 AM)
Average38 °F90%29.85 "Hg
* Reported Dec 3 11:20 AM — Dec 18 11:20 AM, Aurich, Weather by CustomWeather, © 2014

Note: Actual official high and low records may vary slightly from our data, if they occured in-between our weather recording intervals... More about our weather records

Advertising

Aurich weather history for previous 24 hours

 ConditionsComfort  
Time TempWeatherWind HumidityBarometerVisibility
11:20 AM
Dec 18
50 °FDrizzle. Fog.16 mph94%29.68 "Hg2 mi
10:20 AM50 °FDrizzle. Fog.15 mph94%29.68 "Hg2 mi
9:20 AM50 °FDrizzle. Fog.14 mph94%29.68 "Hg1 mi
8:20 AM48 °FDrizzle. Fog.10 mph100%29.68 "Hg1 mi
7:20 AM50 °FFog.15 mph94%29.68 "Hg2 mi
6:20 AM48 °FFog.14 mph100%29.68 "Hg2 mi
5:20 AM48 °FDrizzle. Fog.12 mph100%29.68 "Hg2 mi
4:20 AM48 °FFog.9 mph94%29.68 "Hg2 mi
3:20 AM48 °FFog.12 mph94%29.68 "Hg2 mi
2:20 AM46 °FFog.9 mph93%29.71 "Hg2 mi
1:20 AM46 °FPartly cloudy.10 mph93%29.68 "Hg4 mi
12:20 AM46 °FFog.8 mph93%29.68 "Hg2 mi
11:20 PM
Dec 17
46 °FFog.10 mph100%29.68 "Hg2 mi
10:20 PM45 °FPassing clouds.6 mph93%29.65 "Hg4 mi
9:20 PM45 °FPartly cloudy.8 mph93%29.65 "HgN/A
8:20 PM45 °FPassing clouds.12 mph93%29.62 "HgN/A
7:20 PM45 °FPassing clouds.10 mph93%29.59 "HgN/A
6:20 PM46 °FPassing clouds.12 mph87%29.56 "HgN/A
5:20 PM46 °FPassing clouds.13 mph87%29.50 "HgN/A
4:20 PM46 °FPassing clouds.17 mph93%29.47 "Hg6 mi
3:20 PM45 °FDrizzle. Fog.13 mph100%29.47 "Hg3 mi
2:20 PM41 °FDrizzle. Fog.14 mph100%29.45 "Hg2 mi
1:20 PM41 °FDrizzle. Fog.14 mph93%29.45 "Hg2 mi
12:20 PM39 °FDrizzle. Fog.15 mph93%29.47 "Hg2 mi
Weather by CustomWeather, © 2014

See weather overviewHow to use our weather pages